CZ-6A DEB, 64635

Orbit data source: Space-Track

CZ-6A DEB, 64635 is space debris in LEO originally from a launch on Tue, 06 Aug 2024 UTC launched from the Taiyaun Space Center, China (TSC). Debris objects in space refer to the collection of defunct objects orbiting the Earth. Examples of debris include non-operational satellites, rocket bodies, and fragments generated from explosions, collisions, or faulty payload assembly.

Loading next visibility...
Identifier
64635, 2024-140ADZ
Orbit
LEO
Country
Flag of CNCN / PRC
Related business
Manufacturer
SAST
Mission
Spacecraft
Bus & Motor
Unknown
Mass
Unknown
Launch date (UTC)
2024-08-06 (2 years ago)
Launch vehicle
Unknown
Launch site
Taiyaun Space Center, China (TSC)
Object type
Payload
Rocket body
Debris
Shape & HBR
Unknown shape, 0.1 m
Radar Cross Section
Small (<0.1 m²)

Expand to show TLE details & history
Last TLE update: 2 days ago

TLE from 2 days ago
0 CZ-6A DEB
1 64635U 24140ADZ 26116.73088766  .00007207  00000-0  13531-2 0  9997
2 64635  89.1135 285.3251 0102386  70.1050 291.1160 14.61241841 85366
Epoch: 2026-04-26T17:32Z
TLE epoch observation values (Epoch: 2026-04-26T17:32:28.693Z)
Latitude
-0.00006°
Longitude
167.47484°
Altitude
666.854 km
Speed
7.537 km/s
True Right ascension
19h 01m 18s
True Declination
0° 00' 00"
Sunlit
Object was in daylight at epoch
Visualization orbit readout
Latitude
Unknown
Longitude
Unknown
Altitude
Unknown
Speed
Unknown
Apparent Right ascension
Unknown
Apparent Declination
Unknown
Sunlit
N/A
Visualization observer readout
Local Sidereal Time
06:31:08
Azimuth
Unknown
Elevation
Unknown
Doppler factor
Unknown
Orbital elements
Apogee altitude
758.386 km
Perigee altitude
613.731 km
Semi-major axis
7,064.195 km
Eccentricity
0.01024
Inclination
89.1135°
RAAN
285.3251°
Arg. of periapsis
70.105°
True anomaly
290.01652°
Mean anomaly
291.116°
Eccentric anomaly
290.56676°
Mean motion
3.65552 °/min
Orbital period
98.48 mins
BSTAR
0.0013531
Loading maneuver chart data...
Computing Atmospheric mass density...
Loading historical data...
Loading historical data...
Loading historical data...
Loading historical data...
Loading historical data...
Loading historical data...
Loading historical data...

Documentation

Showing up to 5 results
|